Miscellaneous Local Product
Issued by NWS Hastings, NE

Home | Current Version | Previous Version | Text Only | Print | Product List | Glossary On
Versions: 1 2 3 4 5 6 7 8 9 10 11 12 13 14 15 16 17 18 19 20 21 22 23 24 25 26 27 28 29 30 31 32 33 34 35 36 37 38 39 40 41 42 43 44 45 46 47 48 49 50
000
AXUS43 KGID 191302
MISGRI

GID CWA HOURLY WEATHER ROUNDUP
NATIONAL WEATHER SERVICE HASTINGS NE
800 AM CDT SUN APR 19 2015

NOTE: "FAIR" INDICATES FEW OR NO CLOUDS BELOW 12,000 FEET WITH NO
SIGNIFICANT WEATHER AND/OR OBSTRUCTIONS TO VISIBILITY.

...SOUTH CENTRAL NEBRASKA...

CITY           SKY/WX    TMP DP  RH WIND       PRES   REMARKS
GRAND ISLAND   RAIN      49  46  90 N21       29.83R FOG
HASTINGS       LGT RAIN  50  47  89 N18G25    29.82R
KEARNEY        CLOUDY    48  45  87 N16       29.85R
ORD            LGT RAIN  48  44  86 N18G30    29.84R
YORK           RAIN      50  50 100 N8        29.81R
AURORA         LGT RAIN  50  50  99 N16       29.82R
LEXINGTON      LGT RAIN  48  46  90 N26G36    29.85R
HOLDREGE       LGT RAIN  49  46  90 N17G23    29.84R
HEBRON         CLOUDY    52  50  90 NW8       29.78S

...NEBRASKA PANHANDLE...

CITY           SKY/WX    TMP DP  RH WIND       PRES   REMARKS
CHADRON        CLEAR     35  31  85 NW10      30.11R WCI  27
ALLIANCE       CLEAR     37  31  78 NW15      30.06R WCI  28
SCOTTSBLUFF    PTCLDY    38  32  79 NW17      30.12R WCI  28
SIDNEY         PTCLDY    38  31  76 N18       30.07R WCI  28

...WESTERN AND NORTH CENTRAL NEBRASKA...

CITY           SKY/WX    TMP DP  RH WIND       PRES   REMARKS
VALENTINE      PTSUNNY   43  35  73 NW17      29.98R
AINSWORTH      CLOUDY    44  40  86 N20       29.95R
ONEILL         CLOUDY    48  45  89 NW28G40   29.86S
BROKEN BOW     LGT RAIN  47  42  83 N36G44    29.86R
IMPERIAL       CLOUDY    45  37  73 N26G39    29.98R
NORTH PLATTE   CLOUDY    45  38  76 N25G33    29.92R
MCCOOK         RAIN      49  45  86 N16G25    29.90R FOG

...EASTERN NEBRASKA...

CITY           SKY/WX    TMP DP  RH WIND       PRES   REMARKS
NORFOLK        NOT AVBL
SO SIOUX CITY  CLOUDY    53  49  86 NW20      29.74R
TEKAMAH        CLOUDY    55  53  93 NW12      29.73S
COLUMBUS       CLOUDY    50  43  76 N16G26    29.81R
ALBION         CLOUDY    49  44  80 N22G30    29.79R
OMAHA EPPLEY   FOG       56  55  97 W9        29.72F VSB 1
OFFUTT AFB     HVY RAIN  55  55 100 W8        29.72F FOG
MILLARD        RAIN      55  55  97 CALM      29.74S
LINCOLN        LGT RAIN  54  51  90 NW10      29.77R FOG
NEBRASKA CITY  RAIN      55  55 100 NW14      29.72S
BEATRICE       DRIZZLE   53  51  95 NW5       29.76S
FALLS CITY     RAIN      54  52  93 W12       29.72S FOG

...NORTHERN KANSAS...

CITY           SKY/WX    TMP DP  RH WIND       PRES   REMARKS
GOODLAND       LGT RAIN  43  42  97 N30G37    29.95R
HILL CITY      HVY RAIN  50  48  93 W12       29.86R FOG
NORTON         LGT RAIN  48  45  87 NW17      29.86R
PHILLIPSBURG   RAIN      54  54 100 NW9       29.83S
SMITH CENTER   CLOUDY    50  48  93 NW10      29.82S
BELOIT         MOSUNNY   52  48  87 N10       29.77R
HAYS           CLOUDY    52  43  71 N9        29.81R
RUSSELL        PTSUNNY   49  48  97 N6        29.78R
CONCORDIA      CLOUDY    53  51  93 W5        29.76F
SALINA         CLOUDY    52  49  89 NW8       29.78R
TOPEKA         CLOUDY    54  53  97 W7        29.74R



USA.gov is the U.S. government's official web portal to all federal, state and local government web resources and services.